Regional Weather Roundup
Issued by NWS Newport/Morehead, NC

Current Version | Previous Version | Text Only | Print | Product List | Glossary On
Versions: 1 2 3 4 5 6 7 8 9 10 11 12 13 14 15 16 17 18 19 20 21 22 23 24 25 26 27 28 29 30 31 32 33 34 35 36 37 38 39 40 41 42 43 44 45 46 47 48 49 50
000
ASUS42 KMHX 211825
RWRMHX
WEATHER ROUNDUP FOR EASTERN NORTH CAROLINA
NATIONAL WEATHER SERVICE NEWPORT/MOREHEAD CITY NC
200 PM EDT THU SEP 21 2017

NOTE: "FAIR" INDICATES FEW OR NO CLOUDS BELOW 12,000 FEET
WITH NO SIGNIFICANT WEATHER AND/OR OBSTRUCTIONS TO VISIBILITY

NCZ015>017-031-032-045>047-102-103-211900-
NORTH COAST

CITY           SKY/WX    TMP DP  RH WIND       PRES   REMARKS
EDENTON        SUNNY     87  66  48 CALM      30.01F
ELIZABETH CITY SUNNY     88  68  51 VRB3      30.00F
KITTY HAWK     CLEAR     78  68  71 CALM      30.01S
MANTEO         SUNNY     81  68  63 NE5       30.01F

$$

NCZ045>047-081-094-103-104-211900-
CENTRAL COAST

CITY           SKY/WX    TMP DP  RH WIND       PRES   REMARKS
FRISCO         SUNNY     85  69  58 VRB6      30.01F

$$

NCZ095-097-098-100-101-211900-
SOUTHERN COAST

CITY           SKY/WX    TMP DP  RH WIND       PRES   REMARKS
BEAUFORT       MOSUNNY   84  73  69 E8        30.00F
CEDAR ISLAND   NOT AVBL
JACKSONVILLE   MOSUNNY   88  71  57 VRB3      29.99F
PINEY ISLAND     N/A    N/A N/A N/A E7        30.00F
WILMINGTON     MOSUNNY   86  72  62 SE9       30.00F


$$

NCZ011>013-027>030-043-044-078>080-089-090>093-098-211900-
COASTAL PLAIN

CITY           SKY/WX    TMP DP  RH WIND       PRES   REMARKS
AHOSKIE          N/A     84  66  54 NW3       30.02F
CLINTON        SUNNY     91  69  49 CALM      30.00F
ELIZABETHTOWN  NOT AVBL
GOLDSBORO      MOSUNNY   89  69  50 N3        29.99F
GREENVILLE     SUNNY     88  70  55 N9        30.03S
HAVELOCK       CLOUDY    85  67  54 NE8       30.01F THUNDER
KENANSVILLE    MOSUNNY   86  68  54 CALM      30.00F
KINSTON        MOSUNNY   88  64  45 N5        30.00F
NEW BERN       CLOUDY    84  70  62 E10       30.01F THUNDER
RICHLANDS      PTSUNNY   88  70  55 NE5       30.00F
ROCKY MOUNT    CLOUDY    86  68  54 NE6       30.02F
WASHINGTON     MOSUNNY   85  67  54 CALM      30.01F
WHITEVILLE     MOSUNNY   88  68  51 CALM      30.00F

$$

AMZ130-135-150-152-154-156-158-170-250-252-270-ANZ085-086-088-633-658-670-211900-
MARINE OBSERVATIONS

STATION/POSITION TIME  TEMP    WIND        PRES    WAVE   SWELL
                       AIR SEA DIR/SP/G            HT/PER HT/PER
                 (UTC) (F)     (DEG/KT/KT) (MB)    (FT/S) (FT/S)
CHESAPEAKE LIGHT NOT AVBL
64 E VA BEACH    1750   72 72  320/  6/  6 1016.6    7/11   7/11
DUCK             1800   75 76   30/  6/  7 1015.9
2 E DUCK         1730      76                N/A     4/12   2/12
OREGON INLET     1800   77 77   10/  8/ 11 1016.1
13E OREGON INLT  1748      75                N/A     5/12   5/12
HATTERAS CG      1800   80 77   10/  4/  5 1016.1
DIAMOND BUOY     1750   78 78  350/  4/  4 1016.1    5/11   5/11
CAPE LOOKOUT     1800   80     110/  5/  6 1015.6
BEAUFORT LAB     1800   81 76  120/  8/ 11 1015.2
30 SE NEW RVR IN 1808   81      30/  2/  4 1016.2
30 SE NEW RVR IN NOT AVBL
27 SE WRIGHTSVLE 1808   81 81  270/  2/  4 1016.3
5 SE WRIGHTSVLE  1808   80 79  120/  8/ 10 1015.8
225 S CAPE HAT   1750   79 82   30/  4/  6 1017.0    5/11   5/11
41 SE CHARLESTON 1810   82        CALM     1016.3

$$




USA.gov is the U.S. government's official web portal to all federal, state and local government web resources and services.